Weather History for Prestonsburg, KY

Change the Weather History Date:

Monday, August 12, 2013

  Actual Average (KJKL) Record (KJKL)
Temperature  
Mean Temperature 73 °F 75 °F  
Max Temperature 79 °F 85 °F 97 °F (2005)
Min Temperature 67 °F 66 °F 53 °F (2008)
Degree Days  
Heating Degree Days 0 0  
Month to date heating degree days 0  
Since 1 June heating degree days 12  
Since 1 July heating degree days 0  
Cooling Degree Days 8 10  
Month to date cooling degree days 120  
Year to date cooling degree days 800  
Since 1 June cooling degree days 664  
Growing Degree Days 23 (Base 50)    
Moisture  
Dew Point 70 °F    
Average Humidity 93    
Maximum Humidity 99    
Minimum Humidity 77    
Precipitation  
Precipitation 0.00 in 0.12 in 2.40 in (2013)
Month to date precipitation 1.64  
Year to date precipitation 31.50  
Snow  
Snow 0.00 in 0.00 in - ()
Month to date snowfall 0.0  
Since 1 June snowfall 0.0  
Since 1 July snowfall 0.0  
Snow Depth -    
Sea Level Pressure  
Sea Level Pressure 30.06 in    
Wind  
Wind Speed 2 mph (SSW)    
Max Wind Speed 13 mph    
Max Gust Speed 16 mph    
Visibility 6 miles    
Events Fog , Rain    
T = Trace of Precipitation, MM = Missing Value Source: NWS Daily Summary

Daily Weather History Graph

Daily Weather History Graph

Search for Another Location

Airport:

Trip Planner

Search our weather history database for the weather conditions in past years. The results will help you decide how hot, cold, wet, or windy it might be!

Date:

Astronomy

Aug. 12, 2013 Rise Set
Actual Time 6:43 AM EDT 8:26 PM EDT
Civil Twilight 6:15 AM EDT 8:54 PM EDT
Nautical Twilight 5:41 AM EDT 9:28 PM EDT
Astronomical Twilight 5:05 AM EDT 10:04 PM EDT
Moon 12:25 PM EDT (8/12) 11:26 PM EDT (8/12)
Length of Visible Light 14h 39m
Length of Day
13h 42m
Waxing Crescent, 31% of the Moon is Illuminated
Aug 12
Waxing Crescent
Aug 14
First Quarter
Aug 20
Full
Aug 28
Last Quarter
Sep 5
New

Hourly Weather History & Observations

Time (EDT) Temp. Dew Point Humidity Pressure Visibility Wind Dir Wind Speed Gust Speed Precip Events Conditions
3:15 AM 68.5 °F 68.4 °F 99% 30.11 in 3.0 mi Calm Calm - N/A   Mostly Cloudy
3:35 AM 68.5 °F 68.2 °F 99% 30.11 in 4.0 mi Calm Calm - N/A   Mostly Cloudy
3:55 AM 68.2 °F 68.0 °F 99% 30.11 in 2.0 mi Calm Calm - N/A   Mostly Cloudy
4:15 AM 68.9 °F 68.4 °F 98% 30.11 in 5.0 mi Calm Calm - N/A   Mostly Cloudy
4:35 AM 69.1 °F 68.9 °F 99% 30.11 in 5.0 mi Calm Calm - N/A   Mostly Cloudy
4:55 AM 68.2 °F 67.8 °F 99% 30.11 in 0.8 mi Calm Calm - N/A   Overcast
5:15 AM 69.1 °F 68.9 °F 99% 30.11 in 5.0 mi Calm Calm - N/A   Overcast
5:35 AM 68.7 °F 68.2 °F 98% 30.11 in 4.0 mi Calm Calm - N/A   Scattered Clouds
5:55 AM 68.2 °F 68.0 °F 99% 30.11 in 2.5 mi Calm Calm - N/A   Scattered Clouds
6:15 AM 67.6 °F 67.3 °F 99% 30.11 in 0.2 mi Calm Calm - N/A Fog Fog
6:35 AM 67.6 °F 67.3 °F 99% 30.11 in 1.0 mi Calm Calm - N/A   Overcast
6:55 AM 68.5 °F 68.4 °F 99% 30.11 in 3.0 mi Calm Calm - N/A   Mostly Cloudy
7:15 AM 68.9 °F 68.5 °F 99% 30.12 in 3.0 mi SSW 3.5 mph - N/A   Mostly Cloudy
7:35 AM 69.1 °F 68.9 °F 99% 30.11 in 0.8 mi South 3.5 mph - N/A   Overcast
7:55 AM 69.8 °F 69.6 °F 99% 30.11 in 1.5 mi Calm Calm - N/A   Overcast
8:15 AM 70.0 °F 69.8 °F 99% 30.11 in 1.2 mi Calm Calm - N/A   Overcast
8:35 AM 69.8 °F 69.6 °F 99% 30.11 in 0.2 mi SSW 3.5 mph - N/A Fog Fog
8:55 AM 70.3 °F 70.0 °F 99% 30.11 in 0.2 mi SSW 3.5 mph - N/A Fog Fog
9:15 AM 71.1 °F 70.9 °F 99% 30.11 in 0.2 mi SSW 3.5 mph - N/A Fog Fog
9:35 AM 71.1 °F 70.9 °F 99% 30.11 in 0.2 mi South 3.5 mph - N/A Fog Fog
9:55 AM 71.6 °F 71.4 °F 99% 30.11 in 0.8 mi SSW 3.5 mph - N/A   Overcast
10:15 AM 71.8 °F 71.4 °F 99% 30.12 in 2.5 mi SW 4.6 mph - N/A   Overcast
10:35 AM 72.1 °F 71.2 °F 97% 30.12 in 2.5 mi SW 3.5 mph - N/A   Overcast
10:55 AM 72.3 °F 71.1 °F 96% 30.11 in 4.0 mi SSW 4.6 mph - N/A   Overcast
11:15 AM 73.6 °F 71.6 °F 93% 30.11 in 5.0 mi Calm Calm - N/A   Overcast
11:35 AM 74.7 °F 71.8 °F 91% 30.11 in 7.0 mi Calm Calm - N/A   Overcast
11:55 AM 74.8 °F 71.2 °F 88% 30.10 in 10.0 mi Calm Calm - N/A   Overcast
12:15 PM 77.7 °F 72.3 °F 83% 30.10 in 10.0 mi Calm Calm - N/A   Mostly Cloudy
12:35 PM 78.3 °F 72.3 °F 82% 30.10 in 10.0 mi SW 3.5 mph - N/A   Mostly Cloudy
12:55 PM 79.0 °F 72.0 °F 79% 30.09 in 10.0 mi SW 3.5 mph - N/A   Scattered Clouds
1:15 PM 79.5 °F 71.6 °F 77% 30.09 in 10.0 mi South 3.5 mph - N/A   Scattered Clouds
1:35 PM 79.5 °F 72.3 °F 79% 30.08 in 10.0 mi Calm Calm - N/A   Scattered Clouds
1:55 PM 79.2 °F 72.1 °F 79% 30.07 in 10.0 mi Calm Calm - N/A   Mostly Cloudy
2:15 PM 79.7 °F 72.1 °F 78% 30.06 in 10.0 mi Calm Calm - N/A   Mostly Cloudy
2:35 PM 78.8 °F 72.3 °F 80% 30.06 in 10.0 mi West 3.5 mph - N/A   Mostly Cloudy
2:55 PM 77.2 °F 73.8 °F 89% 30.05 in 10.0 mi Calm Calm - N/A   Scattered Clouds
3:15 PM 76.3 °F 74.1 °F 93% 30.04 in 5.0 mi Calm Calm - N/A Rain Light Rain
3:35 PM 76.5 °F 74.5 °F 94% 30.04 in 5.0 mi Calm Calm - N/A Rain Rain
3:55 PM 75.7 °F 73.0 °F 91% 30.03 in 5.0 mi SSE 12.7 mph 16.1 mph N/A Rain Rain
4:15 PM 72.9 °F 70.2 °F 91% 30.04 in 10.0 mi Calm Calm - N/A   Light Drizzle
4:35 PM 72.7 °F 70.0 °F 91% 30.03 in 5.0 mi SSE 6.9 mph - N/A Rain Rain
4:55 PM 72.0 °F 69.6 °F 92% 30.04 in 10.0 mi South 5.8 mph - N/A Rain Light Rain
5:15 PM 72.1 °F 70.2 °F 93% 30.04 in 10.0 mi SSW 6.9 mph - N/A Rain Light Rain
5:35 PM 72.5 °F 71.6 °F 97% 30.03 in 5.0 mi SSW 5.8 mph - N/A   Drizzle
5:55 PM 73.6 °F 72.1 °F 95% 30.02 in 10.0 mi SSW 5.8 mph - N/A   Overcast
6:15 PM 74.5 °F 72.1 °F 92% 30.01 in 10.0 mi South 9.2 mph - N/A   Overcast
6:35 PM 73.6 °F 70.5 °F 90% 30.01 in 10.0 mi WSW 4.6 mph - N/A   Mostly Cloudy
6:55 PM 73.2 °F 70.9 °F 92% 30.01 in 10.0 mi South 4.6 mph - N/A   Mostly Cloudy
7:15 PM 73.0 °F 70.3 °F 91% 30.00 in 10.0 mi SSW 3.5 mph - N/A   Overcast
7:35 PM 72.9 °F 70.2 °F 91% 29.99 in 10.0 mi SSE 5.8 mph - N/A   Mostly Cloudy
7:55 PM 72.1 °F 69.8 °F 92% 30.00 in 10.0 mi South 6.9 mph - N/A   Overcast
8:15 PM 71.6 °F 69.8 °F 94% 30.00 in 10.0 mi South 3.5 mph - N/A   Overcast
8:35 PM 71.2 °F 69.4 °F 94% 30.00 in 10.0 mi South 3.5 mph - N/A   Mostly Cloudy
8:55 PM 71.1 °F 69.4 °F 95% 29.99 in 10.0 mi SSE 4.6 mph - N/A   Mostly Cloudy
9:15 PM 70.9 °F 69.3 °F 95% 29.98 in 10.0 mi SE 3.5 mph - N/A   Overcast
9:35 PM 70.3 °F 68.9 °F 95% 29.97 in 10.0 mi SSE 3.5 mph - N/A   Mostly Cloudy
9:55 PM 70.7 °F 68.9 °F 94% 29.97 in 10.0 mi Calm Calm - N/A   Mostly Cloudy
10:15 PM 70.7 °F 68.9 °F 94% 29.97 in 10.0 mi South 4.6 mph - N/A   Overcast
10:35 PM 70.7 °F 68.9 °F 94% 29.97 in 10.0 mi South 4.6 mph - N/A   Scattered Clouds
10:55 PM 70.7 °F 69.1 °F 95% 29.97 in 10.0 mi South 5.8 mph - N/A   Clear
11:15 PM 70.9 °F 69.1 °F 94% 29.97 in 10.0 mi SSW 5.8 mph - N/A   Mostly Cloudy
11:55 PM 70.7 °F 69.6 °F 96% 29.97 in 10.0 mi South 4.6 mph - N/A Rain Light Rain